* Astronomy

Members Login
Username 
 
Password 
    Remember Me  
Post Info TOPIC: Asteroid 2011 YV62


L

Posts: 131433
Date:
Asteroid 2011 YV62
Permalink  
 


Orbital elements:
2011 YV62                                           PHA, Earth MOID = 0.0006 AU
Epoch 2012 Mar. 14.0 TT = JDT 2456000.5                 MPC
M  90.12799              (2000.0)            P               Q
n   0.48907638     Peri.   85.54206     +0.85072505     +0.51216295
a   1.5954563      Node   243.60935     -0.51920704     +0.78388102
e   0.5813973      Incl.    7.57821     -0.08179808     +0.35102657
P   2.02           H   21.0           G   0.15           U   9

MPEC 2012 - A07



__________________
Page 1 of 1  sorted by
 
Quick Reply

Please log in to post quick replies.



Create your own FREE Forum
Report Abuse
Powered by ActiveBoard